This is the latest recevied weather packets stored in our database for station/object N7SWJ. If no packets are shown the sender has not sent any weather packets the latest 10 day(s).
| Time | Temp. | Humidity | Pressure | Rain* | Wind** | Luminosity | Snow |
|---|---|---|---|---|---|---|---|
| 1777996182 | 1.67° C | 95% | 1017.7 hPa | 3.05 mm | - | 171 W/m² | - |
| 1777995878 | 1.67° C | 95% | 1017.6 hPa | 3.05 mm | - | 171 W/m² | - |
| 1777995574 | 1.67° C | 95% | 1017.7 hPa | 3.05 mm | - | 145 W/m² | - |
| 1777995272 | 1.67° C | 95% | 1017.8 hPa | 3.05 mm | - | 136 W/m² | - |
| 1777994968 | 1.11° C | 95% | 1017.7 hPa | 3.05 mm | - | 128 W/m² | - |
| 1777994665 | 1.11° C | 95% | 1017.6 hPa | 3.05 mm | - | 109 W/m² | - |
| 1777994359 | 1.11° C | 95% | 1017.6 hPa | 3.05 mm | - | 91 W/m² | - |
| 1777994056 | 1.11° C | 95% | 1017.7 hPa | 3.05 mm | - | 71 W/m² | - |
| 1777993753 | 1.11° C | 95% | 1017.6 hPa | 3.05 mm | - | 81 W/m² | - |
| 1777993451 | 1.11° C | 95% | 1017.4 hPa | 3.56 mm | - | 86 W/m² | - |
| 1777993150 | 1.11° C | 95% | 1017.6 hPa | 3.05 mm | - | 69 W/m² | - |
| 1777992849 | 1.11° C | 95% | 1017.6 hPa | 3.05 mm | - | 69 W/m² | - |
| 1777992546 | 1.11° C | 95% | 1017.6 hPa | 1.78 mm | - | 53 W/m² | - |
| 1777992244 | 1.11° C | 95% | 1017.5 hPa | 1.27 mm | - | 51 W/m² | - |
| 1777991941 | 1.11° C | 95% | 1017.5 hPa | 3.05 mm | - | 51 W/m² | - |
| 1777991639 | 1.11° C | 95% | 1017.4 hPa | 1.78 mm | - | 62 W/m² | - |
| 1777991336 | 1.11° C | 94% | 1017.5 hPa | 0 mm | - | 68 W/m² | - |
| 1777991033 | 1.11° C | 95% | 1017.6 hPa | 0 mm | - | 57 W/m² | - |
| 1777990730 | 1.11° C | 95% | 1017.5 hPa | 0 mm | - | 54 W/m² | - |
| 1777990427 | 1.11° C | 95% | 1017.6 hPa | 0 mm | - | 49 W/m² | - |
| 1777989820 | 0.56° C | 94% | 1017.7 hPa | 0 mm | - | 33 W/m² | - |
| 1777989518 | 0.56° C | 94% | 1017.6 hPa | 0 mm | - | 31 W/m² | - |
| 1777989214 | 0.56° C | 94% | 1017.7 hPa | 0 mm | - | 28 W/m² | - |
| 1777988910 | 0.56° C | 94% | 1017.8 hPa | 0 mm | - | 28 W/m² | - |
| 1777988607 | 0.56° C | 94% | 1017.7 hPa | 0 mm | - | 23 W/m² | - |
* Rain latest hour (hover to see other rain measurements)
** Current wind speed in m/s (hover to see current wind gust speed)